Location: Montreal
(45.5000°N, 73.5833°W)
Time: 12:04:23
(UTC-04:00)

Vanguard 2 Rocket - Visible Passes

Search period start: 20 October 2017 00:00
Search period end: 30 October 2017 00:00
Orbit: 555 x 3327 km, 32.9° (Epoch: 19 October)

Date Brightness Start Highest point End Pass type
(mag) Time Alt. Az. Time Alt. Az. Time Alt. Az.
20 Oct 10.5 18:14:21 10° WSW 18:23:27 27° SSW 18:36:22 10° SSE visible
20 Oct 11.1 20:35:21 10° SW 20:38:25 11° SW 20:41:40 10° SSW visible
21 Oct 11.0 19:31:14 10° WSW 19:38:00 15° SSW 19:46:09 10° S visible
22 Oct 10.8 18:30:14 10° WSW 18:37:41 19° SSW 18:47:28 10° S visible
24 Oct 11.0 18:48:39 10° SW 18:51:58 11° SSW 18:55:40 10° SSW visible
